Location: Observatoire
(46.1952°N, 5.3391°E)
Time: 06:32:42
(UTC+01:00)

Tiros 1 despin weight - Pass Details

Date: 23 February 2026
Orbit: 556 x 593 km, 48.2° (Epoch: 13 March)

Event Time Altitude Azimuth Distance (km) Brightness Sun altitude
Rises 14:58:19 0° 255° (WSW) 2,747 ? 27.4°
Reaches altitude 10° 15:00:35 10° 256° (WSW) 1,847 ? 27.1°
Maximum altitude 15:04:49 85° 346° (NNW) 565 ? 26.7°
Drops below altitude 10° 15:09:01 10° 74° (ENE) 1,838 ? 26.3°
Sets 15:11:16 0° 75° (ENE) 2,733 ? 26.0°
